Weather History for Slayton, MN

Change the Weather History Date:

Wednesday, August 22, 2012

  Actual Average (KOTG) Record (KOTG)
Temperature  
Mean Temperature 72 °F -  
Max Temperature 89 °F 75 °F 90 °F (1976)
Min Temperature 55 °F 57 °F 46 °F (1986)
Cooling Degree Days 7    
Growing Degree Days 22 (Base 50)    
Moisture  
Dew Point 56 °F    
Average Humidity 63    
Maximum Humidity 93    
Minimum Humidity 26    
Precipitation  
Precipitation 0.00 in - - ()
Sea Level Pressure  
Sea Level Pressure 29.92 in    
Wind  
Wind Speed 8 mph (SSE)    
Max Wind Speed 22 mph    
Max Gust Speed 32 mph    
Visibility 10 miles    
Events Rain , Thunderstorm    
Averages and records for this station are not official NWS values.
T = Trace of Precipitation, MM = Missing Value Source: NWS Daily Summary

Daily Weather History Graph

Daily Weather History Graph

Search for Another Location

Airport:

Trip Planner

Search our weather history database for the weather conditions in past years. The results will help you decide how hot, cold, wet, or windy it might be!

Date:

Astronomy

Aug. 22, 2012 Rise Set
Actual Time 6:35 AM CDT 8:15 PM CDT
Civil Twilight 6:05 AM CDT 8:45 PM CDT
Nautical Twilight 5:27 AM CDT 9:22 PM CDT
Astronomical Twilight 4:47 AM CDT 10:02 PM CDT
Moon 12:30 PM CDT (8/22) 10:42 PM CDT (8/22)
Length of Visible Light 14h 40m
Length of Day
13h 39m
Waxing Crescent, 29% of the Moon is Illuminated
Aug 22
Waxing Crescent
Aug 24
First Quarter
Aug 31
Full
Sep 8
Last Quarter
Sep 15
New

Hourly Weather History & Observations

Time (CDT) Temp. Heat Index Dew Point Humidity Pressure Visibility Wind Dir Wind Speed Gust Speed Precip Events Conditions
12:14 AM 58.5 °F - 53.2 °F 83% 30.01 in 10.0 mi SSE 4.6 mph - N/A   Clear
12:34 AM 58.6 °F - 53.1 °F 82% 30.01 in 10.0 mi SSE 4.6 mph - N/A   Clear
12:54 AM 55.6 °F - 52.9 °F 91% 30.01 in 10.0 mi SE 4.6 mph - N/A   Clear
1:14 AM 56.1 °F - 53.1 °F 89% 30.01 in 10.0 mi South 3.5 mph - N/A   Clear
1:34 AM 56.3 °F - 53.2 °F 89% 30.01 in 10.0 mi SSE 4.6 mph - N/A   Clear
1:54 AM 58.1 °F - 53.6 °F 85% 30.00 in 10.0 mi SSE 6.9 mph - N/A   Clear
2:14 AM 56.8 °F - 53.2 °F 88% 30.00 in 10.0 mi SE 6.9 mph - N/A   Clear
2:34 AM 56.5 °F - 53.1 °F 88% 29.98 in 10.0 mi SE 8.1 mph - N/A   Clear
2:54 AM 56.3 °F - 52.9 °F 88% 29.98 in 10.0 mi SE 6.9 mph - N/A   Clear
3:14 AM 57.7 °F - 52.7 °F 83% 29.99 in 10.0 mi SSE 5.8 mph - N/A   Scattered Clouds
3:33 AM 60.1 °F - 51.4 °F 73% 30.02 in 10.0 mi SW 5.8 mph 19.6 mph N/A   Mostly Cloudy
3:54 AM 60.3 °F - 52.7 °F 76% 29.99 in 10.0 mi SSE 8.1 mph - N/A   Clear
4:14 AM 59.7 °F - 54.0 °F 81% 29.99 in 10.0 mi SE 6.9 mph - N/A Thunderstorm Scattered Clouds
4:34 AM 60.4 °F - 53.8 °F 79% 29.98 in 10.0 mi South 6.9 mph - N/A   Mostly Cloudy
4:54 AM 61.5 °F - 54.3 °F 77% 29.99 in 10.0 mi WSW 4.6 mph - N/A   Mostly Cloudy
5:14 AM 62.2 °F - 53.8 °F 74% 29.97 in 10.0 mi South 8.1 mph - N/A   Light Drizzle
5:34 AM 61.5 °F - 54.5 °F 78% 29.96 in 10.0 mi SSE 10.4 mph - N/A Rain Light Rain
5:54 AM 59.9 °F - 55.2 °F 84% 29.96 in 10.0 mi South 6.9 mph - N/A   Mostly Cloudy
6:14 AM 59.5 °F - 54.7 °F 84% 29.96 in 10.0 mi SSE 9.2 mph - N/A   Mostly Cloudy
6:34 AM 59.0 °F - 54.3 °F 84% 29.96 in 10.0 mi South 9.2 mph - N/A   Scattered Clouds
7:14 AM 60.3 °F - 55.9 °F 86% 29.96 in 10.0 mi Calm Calm - N/A Rain , Thunderstorm Light Thunderstorms and Rain
7:34 AM 59.9 °F - 56.3 °F 88% 29.97 in 10.0 mi Calm Calm - N/A Rain Light Rain
7:53 AM 59.5 °F - 56.8 °F 91% 29.95 in 10.0 mi ESE 6.9 mph - N/A Rain , Thunderstorm Light Thunderstorms and Rain
8:14 AM 59.9 °F - 56.8 °F 90% 29.95 in 10.0 mi ESE 4.6 mph - N/A Rain , Thunderstorm Light Thunderstorms and Rain
8:34 AM 59.4 °F - 56.7 °F 91% 29.95 in 10.0 mi SE 5.8 mph - N/A Thunderstorm Thunderstorm
8:53 AM 59.4 °F - 57.2 °F 93% 29.94 in 10.0 mi SE 5.8 mph - N/A Thunderstorm Thunderstorm
9:14 AM 60.4 °F - 57.9 °F 91% 29.94 in 10.0 mi SE 5.8 mph - N/A Thunderstorm Thunderstorm
9:34 AM 62.6 °F - 58.3 °F 86% 29.93 in 10.0 mi SE 8.1 mph - N/A Thunderstorm Clear
9:54 AM 66.6 °F - 58.5 °F 75% 29.92 in 10.0 mi SSE 9.2 mph - N/A   Clear
10:14 AM 70.0 °F - 59.0 °F 68% 29.92 in 10.0 mi SE 8.1 mph - N/A Thunderstorm Clear
10:34 AM 73.0 °F - 58.3 °F 60% 29.92 in 10.0 mi SE 11.5 mph - N/A Thunderstorm Clear
11:14 AM 77.5 °F - 58.3 °F 51% 29.91 in 10.0 mi SSE 13.8 mph 19.6 mph N/A   Clear
11:34 AM 79.2 °F - 58.8 °F 50% 29.91 in 10.0 mi SSE 12.7 mph 17.3 mph N/A   Clear
11:54 AM 80.8 °F 81.2 °F 59.0 °F 47% 29.91 in 10.0 mi South 13.8 mph - N/A   Clear
12:14 PM 82.6 °F 82.5 °F 58.8 °F 44% 29.90 in 10.0 mi South 17.3 mph 24.2 mph N/A Thunderstorm Clear
12:34 PM 83.7 °F 83.4 °F 59.0 °F 43% 29.90 in 10.0 mi South 18.4 mph 24.2 mph N/A   Clear
12:54 PM 84.7 °F 84.2 °F 58.6 °F 41% 29.89 in 10.0 mi South 13.8 mph 24.2 mph N/A   Clear
1:14 PM 85.5 °F 84.3 °F 56.3 °F 37% 29.89 in 10.0 mi South 15.0 mph 26.5 mph N/A   Clear
1:34 PM 87.3 °F 85.9 °F 56.5 °F 35% 29.88 in 10.0 mi South 18.4 mph 27.6 mph N/A   Clear
1:55 PM 88.2 °F - 51.1 °F 28% 29.88 in 10.0 mi South 19.6 mph 29.9 mph N/A   Clear
2:14 PM 89.2 °F - 51.3 °F 27% 29.88 in 10.0 mi South 21.9 mph 28.8 mph N/A   Clear
2:34 PM 88.5 °F - 49.8 °F 26% 29.88 in 10.0 mi South 19.6 mph 32.2 mph N/A   Clear
2:54 PM 89.4 °F - 50.2 °F 26% 29.88 in 10.0 mi South 21.9 mph 28.8 mph N/A   Clear
3:14 PM 87.8 °F - 48.4 °F 26% 29.88 in 10.0 mi South 20.7 mph 27.6 mph N/A   Scattered Clouds
3:34 PM 87.6 °F - 50.9 °F 28% 29.88 in 10.0 mi South 11.5 mph 25.3 mph N/A   Mostly Cloudy
3:54 PM 86.9 °F - 52.9 °F 31% 29.88 in 10.0 mi South 16.1 mph 24.2 mph N/A   Mostly Cloudy
4:14 PM 86.9 °F 85.6 °F 57.0 °F 36% 29.88 in 10.0 mi SSW 19.6 mph 24.2 mph N/A   Mostly Cloudy
4:34 PM 87.4 °F 85.3 °F 53.2 °F 31% 29.88 in 10.0 mi SSW 19.6 mph 31.1 mph N/A   Scattered Clouds
5:13 PM 86.9 °F 85.5 °F 55.9 °F 35% 29.86 in 10.0 mi South 17.3 mph 21.9 mph N/A   Clear
5:34 PM 86.5 °F 84.7 °F 54.5 °F 33% 29.86 in 10.0 mi South 20.7 mph 26.5 mph N/A   Clear
5:54 PM 84.6 °F 83.4 °F 55.6 °F 37% 29.86 in 10.0 mi South 13.8 mph 19.6 mph N/A   Clear
6:13 PM 83.3 °F 82.6 °F 56.3 °F 40% 29.86 in 10.0 mi South 11.5 mph 17.3 mph N/A   Clear
6:34 PM 82.0 °F 81.7 °F 56.8 °F 42% 29.85 in 10.0 mi SSE 11.5 mph 18.4 mph N/A   Clear
6:54 PM 80.1 °F 80.5 °F 57.4 °F 46% 29.85 in 10.0 mi SSE 11.5 mph 17.3 mph N/A   Clear
7:13 PM 78.8 °F - 58.1 °F 49% 29.86 in 10.0 mi SSE 10.4 mph - N/A   Clear
7:34 PM 76.8 °F - 59.4 °F 55% 29.86 in 10.0 mi SSE 6.9 mph - N/A   Clear
7:54 PM 75.6 °F - 59.9 °F 58% 29.87 in 10.0 mi SSE 8.1 mph - N/A   Clear
8:13 PM 74.7 °F - 59.9 °F 60% 29.87 in 10.0 mi SSE 8.1 mph - N/A   Clear
8:34 PM 73.0 °F - 58.8 °F 61% 29.87 in 10.0 mi South 8.1 mph - N/A   Clear
8:54 PM 72.5 °F - 58.3 °F 61% 29.87 in 10.0 mi SSE 8.1 mph - N/A   Clear
9:13 PM 71.6 °F - 59.0 °F 64% 29.88 in 10.0 mi SSE 8.1 mph - N/A   Clear
9:34 PM 71.1 °F - 59.0 °F 66% 29.88 in 10.0 mi SSE 8.1 mph - N/A   Clear
9:54 PM 70.3 °F - 59.0 °F 67% 29.88 in 10.0 mi SSE 9.2 mph - N/A   Clear
10:13 PM 69.8 °F - 57.9 °F 66% 29.88 in 10.0 mi SSE 8.1 mph - N/A   Clear
10:34 PM 68.2 °F - 58.1 °F 70% 29.88 in 10.0 mi SE 6.9 mph - N/A   Clear
11:54 PM 66.4 °F - 58.8 °F 77% 29.88 in 10.0 mi SSE 8.1 mph - N/A   Clear